Hourly Weather Kozlyn

Today, 27 October, Tuesday

Time Temperature Precipitation Wind Pressure Humidity
00:00 +10°C° 0 mm 3 mps 743 mmHg 87%
01:00 +10°C° 0 mm 3 mps 743 mmHg 89%
02:00 +9°C° 0 mm 3 mps 743 mmHg 91%
03:00 +9°C° 0 mm 3 mps 743 mmHg 92%
04:00 +9°C° 0 mm 3 mps 743 mmHg 93%
05:00 +9°C° 0 mm 3 mps 743 mmHg 94%
06:00 +9°C° 0 mm 3 mps 743 mmHg 93%
07:00 +9°C° 0 mm 3 mps 744 mmHg 92%
08:00 +8°C° 0 mm 4 mps 744 mmHg 91%
09:00 +11°C° 0 mm 4 mps 744 mmHg 85%
10:00 +13°C° 0 mm 4 mps 744 mmHg 79%
11:00 +14°C° 0 mm 4 mps 744 mmHg 73%
12:00 +15°C° 0 mm 4 mps 744 mmHg 70%
13:00 +17°C° 0 mm 3 mps 744 mmHg 67%
14:00 +18°C° 0 mm 3 mps 745 mmHg 65%
15:00 +16°C° 0 mm 3 mps 745 mmHg 70%
16:00 +14°C° 0 mm 3 mps 744 mmHg 75%
17:00 +13°C° 0 mm 3 mps 744 mmHg 81%
18:00 +12°C° 0 mm 3 mps 744 mmHg 84%
19:00 +12°C° 0 mm 3 mps 745 mmHg 87%
20:00 +11°C° 0 mm 3 mps 745 mmHg 90%
21:00 +12°C° 0 mm 2 mps 745 mmHg 90%
22:00 +12°C° 0 mm 2 mps 745 mmHg 91%
23:00 +12°C° 0 mm 2 mps 745 mmHg 91%

Tomorrow, 28 October, Wednesday

Time Temperature Precipitation Wind Pressure Humidity
00:00 +10°C° 0 mm 2 mps 745 mmHg 92%
01:00 +10°C° 0 mm 2 mps 745 mmHg 93%
02:00 +10°C° 0 mm 2 mps 745 mmHg 93%
03:00 +10°C° 0 mm 2 mps 745 mmHg 94%
04:00 +10°C° 0 mm 2 mps 745 mmHg 94%
05:00 +9°C° 0 mm 2 mps 745 mmHg 95%
06:00 +9°C° 0 mm 2 mps 745 mmHg 95%
07:00 +9°C° 0 mm 2 mps 745 mmHg 95%
08:00 +10°C° 0 mm 2 mps 746 mmHg 96%
09:00 +12°C° 0 mm 2 mps 746 mmHg 89%
10:00 +14°C° 0 mm 2 mps 746 mmHg 83%
11:00 +14°C° 0 mm 3 mps 746 mmHg 77%
12:00 +16°C° 0 mm 3 mps 746 mmHg 73%
13:00 +17°C° 0 mm 3 mps 745 mmHg 70%
14:00 +18°C° 0 mm 3 mps 745 mmHg 66%
15:00 +16°C° 0 mm 2 mps 745 mmHg 71%
16:00 +15°C° 0 mm 2 mps 745 mmHg 77%
17:00 +14°C° 0 mm 2 mps 745 mmHg 82%
18:00 +14°C° 0 mm 2 mps 745 mmHg 85%
19:00 +13°C° 0 mm 2 mps 745 mmHg 87%
20:00 +13°C° 0 mm 2 mps 745 mmHg 90%
21:00 +12°C° 0 mm 2 mps 745 mmHg 91%
22:00 +12°C° 0 mm 2 mps 745 mmHg 92%
23:00 +10°C° 0 mm 2 mps 745 mmHg 93%

Day after tomorrow, 29 October, Thursday

Time Temperature Precipitation Wind Pressure Humidity
00:00 +10°C° 0 mm 2 mps 745 mmHg 93%
01:00 +10°C° 0 mm 2 mps 745 mmHg 94%
02:00 +10°C° 0 mm 2 mps 745 mmHg 94%
03:00 +9°C° 0 mm 2 mps 745 mmHg 94%
04:00 +9°C° 0 mm 2 mps 745 mmHg 94%
05:00 +9°C° 0 mm 2 mps 744 mmHg 94%
06:00 +10°C° 0 mm 1 mps 744 mmHg 94%
07:00 +10°C° 0 mm 1 mps 745 mmHg 94%
08:00 +10°C° 0 mm 1 mps 745 mmHg 94%
09:00 +10°C° 0 mm 2 mps 745 mmHg 88%
10:00 +13°C° 0 mm 2 mps 745 mmHg 81%
11:00 +14°C° 0 mm 2 mps 745 mmHg 75%
12:00 +14°C° 0 mm 2 mps 745 mmHg 72%
13:00 +14°C° 0 mm 3 mps 744 mmHg 69%
14:00 +14°C° 0 mm 3 mps 744 mmHg 66%
15:00 +13°C° 0 mm 3 mps 744 mmHg 70%
16:00 +13°C° 0 mm 2 mps 744 mmHg 74%
17:00 +12°C° 0 mm 2 mps 744 mmHg 78%
18:00 +12°C° 0 mm 2 mps 744 mmHg 79%
19:00 +10°C° 0 mm 2 mps 744 mmHg 81%
20:00 +10°C° 0 mm 2 mps 744 mmHg 82%
21:00 +10°C° 0 mm 2 mps 744 mmHg 82%
22:00 +10°C° 0 mm 2 mps 744 mmHg 82%
23:00 +10°C° 0 mm 2 mps 744 mmHg 82%

30 October, Friday

Time Temperature Precipitation Wind Pressure Humidity
00:00 +10°C° 0.1 mm 2 mps 744 mmHg 83%
01:00 +10°C° 0.1 mm 3 mps 744 mmHg 85%
02:00 +10°C° 0.1 mm 3 mps 744 mmHg 86%
03:00 +10°C° 0.3 mm 3 mps 744 mmHg 88%
04:00 +9°C° 0.3 mm 3 mps 744 mmHg 90%
05:00 +9°C° 0.3 mm 3 mps 744 mmHg 92%
06:00 +8°C° 0.1 mm 4 mps 744 mmHg 90%
07:00 +8°C° 0.1 mm 5 mps 744 mmHg 87%
08:00 +8°C° 0.1 mm 5 mps 745 mmHg 85%
09:00 +8°C° 0 mm 6 mps 745 mmHg 83%
10:00 +8°C° 0 mm 6 mps 745 mmHg 81%
11:00 +8°C° 0 mm 6 mps 745 mmHg 79%
12:00 +8°C° 0 mm 6 mps 745 mmHg 78%
13:00 +8°C° 0 mm 6 mps 745 mmHg 76%
14:00 +8°C° 0 mm 6 mps 746 mmHg 75%
15:00 +7°C° 0 mm 5 mps 745 mmHg 75%
16:00 +7°C° 0 mm 5 mps 745 mmHg 76%
17:00 +7°C° 0 mm 5 mps 745 mmHg 76%
18:00 +7°C° 0 mm 4 mps 745 mmHg 77%
19:00 +7°C° 0 mm 4 mps 746 mmHg 77%
20:00 +7°C° 0 mm 3 mps 746 mmHg 77%
21:00 +7°C° 0 mm 3 mps 746 mmHg 78%
22:00 +7°C° 0 mm 3 mps 745 mmHg 78%
23:00 +7°C° 0 mm 3 mps 745 mmHg 79%

31 October, Saturday

Time Temperature Precipitation Wind Pressure Humidity
00:00 +7°C° 0 mm 3 mps 745 mmHg 80%
01:00 +7°C° 0 mm 2 mps 745 mmHg 80%
02:00 +7°C° 0 mm 2 mps 745 mmHg 81%
03:00 +7°C° 0 mm 2 mps 745 mmHg 80%
04:00 +7°C° 0 mm 2 mps 745 mmHg 80%
05:00 +7°C° 0 mm 2 mps 745 mmHg 80%
06:00 +5°C° 0 mm 3 mps 746 mmHg 82%
07:00 +5°C° 0 mm 3 mps 746 mmHg 84%
08:00 +5°C° 0 mm 4 mps 746 mmHg 86%
09:00 +7°C° 0.2 mm 3 mps 746 mmHg 86%
10:00 +7°C° 0.2 mm 3 mps 747 mmHg 86%
11:00 +8°C° 0.2 mm 3 mps 747 mmHg 86%
12:00 +8°C° 0.1 mm 3 mps 747 mmHg 83%
13:00 +8°C° 0.1 mm 4 mps 748 mmHg 80%
14:00 +10°C° 0.1 mm 4 mps 748 mmHg 78%
15:00 +8°C° 0.1 mm 4 mps 748 mmHg 82%
16:00 +8°C° 0.1 mm 4 mps 748 mmHg 86%
17:00 +8°C° 0.1 mm 4 mps 749 mmHg 89%
18:00 +7°C° 0 mm 4 mps 749 mmHg 90%
19:00 +7°C° 0 mm 4 mps 750 mmHg 90%
20:00 +7°C° 0 mm 4 mps 750 mmHg 91%
21:00 +7°C° 0 mm 4 mps 750 mmHg 90%
22:00 +7°C° 0 mm 4 mps 750 mmHg 90%
23:00 +8°C° 0 mm 3 mps 751 mmHg 89%

1 November, Sunday

Time Temperature Precipitation Wind Pressure Humidity
00:00 +8°C° 0 mm 3 mps 751 mmHg 89%
01:00 +8°C° 0 mm 3 mps 751 mmHg 90%
02:00 +8°C° 0 mm 3 mps 752 mmHg 90%
03:00 +8°C° 0 mm 3 mps 752 mmHg 90%
04:00 +8°C° 0 mm 3 mps 752 mmHg 90%
05:00 +8°C° 0 mm 3 mps 752 mmHg 90%
06:00 +8°C° 0 mm 3 mps 752 mmHg 90%
07:00 +8°C° 0 mm 3 mps 752 mmHg 91%
08:00 +7°C° 0 mm 3 mps 752 mmHg 91%
09:00 +8°C° 0 mm 3 mps 753 mmHg 87%
10:00 +9°C° 0 mm 3 mps 753 mmHg 82%
11:00 +10°C° 0 mm 3 mps 753 mmHg 77%
12:00 +10°C° 0 mm 3 mps 753 mmHg 75%
13:00 +12°C° 0 mm 2 mps 753 mmHg 72%
14:00 +12°C° 0 mm 2 mps 753 mmHg 70%
15:00 +10°C° 0 mm 2 mps 753 mmHg 73%
16:00 +9°C° 0 mm 2 mps 753 mmHg 77%
17:00 +10°C° 0 mm 1 mps 753 mmHg 80%
18:00 +9°C° 0 mm 1 mps 753 mmHg 82%
19:00 +9°C° 0 mm 1 mps 753 mmHg 83%
20:00 +9°C° 0 mm 1 mps 753 mmHg 84%
21:00 +9°C° 0 mm 1 mps 753 mmHg 84%
22:00 +9°C° 0 mm 1 mps 753 mmHg 84%
23:00 +8°C° 0 mm 1 mps 753 mmHg 84%
Show more